Location: Gwatt
(46.7204°N, 7.6223°E)
Time: 11:28:25
(UTC+00:00)

COSMOS 2406 - Pass Details

Date: 18 September 2020
Orbit: 844 x 863 km, 71.0° (Epoch: 24 October)

Event Time Altitude Azimuth Distance (km) Brightness Sun altitude
Rises 20:47:24 0° 332° (NNW) 3,414 7.4 -31.0°
Reaches altitude 10° 20:49:51 10° 333° (NNW) 2,475 6.4 -31.3°
Enters shadow 20:54:21 58° 329° (NNW) 984 3.7 -31.8°
